This is the latest recevied weather packets stored in our database for station/object WY7EM. If no packets are shown the sender has not sent any weather packets the latest 10 day(s).
| Time | Temp. | Humidity | Pressure | Rain* | Wind** | Luminosity | Snow |
|---|---|---|---|---|---|---|---|
| 1778259494 | 24.44° C | 16% | 1015.5 hPa | 0 mm | - | 644 W/m² | - |
| 1778259191 | 24.44° C | 16% | 1015.5 hPa | 0 mm | - | 644 W/m² | - |
| 1778258887 | 23.89° C | 17% | 1015.5 hPa | 0 mm | - | 631 W/m² | - |
| 1778258583 | 23.33° C | 18% | 1015.5 hPa | 0 mm | - | 617 W/m² | - |
| 1778258282 | 23.89° C | 18% | 1015.8 hPa | 0 mm | - | 602 W/m² | - |
| 1778257979 | 23.89° C | 18% | 1015.5 hPa | 0 mm | - | 582 W/m² | - |
| 1778257674 | 22.78° C | 18% | 1015.6 hPa | 0 mm | - | 571 W/m² | - |
| 1778257371 | 22.78° C | 18% | 1015.7 hPa | 0 mm | - | 560 W/m² | - |
| 1778257069 | 22.22° C | 18% | 1015.7 hPa | 0 mm | - | 545 W/m² | - |
| 1778256766 | 22.22° C | 19% | 1015.6 hPa | 0 mm | - | 533 W/m² | - |
| 1778256464 | 21.67° C | 19% | 1015.8 hPa | 0 mm | - | 517 W/m² | - |
| 1778256162 | 21.67° C | 19% | 1015.6 hPa | 0 mm | - | 503 W/m² | - |
| 1778255858 | 21.67° C | 18% | 1015.8 hPa | 0 mm | - | 486 W/m² | - |
| 1778255555 | 21.67° C | 19% | 1015.8 hPa | 0 mm | - | 471 W/m² | - |
| 1778255252 | 22.22° C | 19% | 1015.8 hPa | 0 mm | - | 454 W/m² | - |
| 1778254950 | 21.11° C | 19% | 1015.7 hPa | 0 mm | - | 439 W/m² | - |
| 1778254646 | 20.56° C | 21% | 1015.7 hPa | 0 mm | - | 423 W/m² | - |
| 1778254343 | 20.56° C | 21% | 1015.8 hPa | 0 mm | - | 405 W/m² | - |
| 1778254040 | 20° C | 21% | 1015.6 hPa | 0 mm | - | 384 W/m² | - |
| 1778253735 | 20° C | 21% | 1016 hPa | 0 mm | - | 367 W/m² | - |
| 1778253432 | 20° C | 21% | 1015.8 hPa | 0 mm | - | 345 W/m² | - |
| 1778253129 | 20° C | 21% | 1016 hPa | 0 mm | - | 331 W/m² | - |
| 1778252826 | 20° C | 21% | 1015.8 hPa | 0 mm | - | 312 W/m² | - |
| 1778252522 | 20° C | 21% | 1015.7 hPa | 0 mm | - | 293 W/m² | - |
| 1778252218 | 19.44° C | 21% | 1016 hPa | 0 mm | - | 273 W/m² | - |
* Rain latest hour (hover to see other rain measurements)
** Current wind speed in m/s (hover to see current wind gust speed)